Auburn, AL

8:02 AM CST on November 18, 2019 (GMT -0600)
Auburn-opelika-pitts

Weather History for KAUO - June, 2019

Change the Weather History Date:

Tuesday, June 11, 2019

  Actual Average Record
Temperature  
Mean Temperature 77 °F -  
Max Temperature 87 °F - 98 °F (1963)
Min Temperature 66 °F - 50 °F (1960)
Cooling Degree Days 12    
Month to date cooling degree days 143  
Year to date cooling degree days 559  
Since 1 June cooling degree days 143  
Growing Degree Days 26 (Base 50)    
Moisture  
Dew Point 69 °F    
Average Humidity 80    
Maximum Humidity 100    
Minimum Humidity 53    
Precipitation  
Precipitation 0.03 in - 0.95 in (1986)
Month to date precipitation 1.15  
Year to date precipitation 21.61  
Sea Level Pressure  
Sea Level Pressure 30.04 in    
Wind  
Wind Speed 7 mph (NNE)    
Max Wind Speed 13 mph    
Max Gust Speed -    
Visibility 10 miles    
Events Rain    
T = Trace of Precipitation, MM = Missing Value Source: NWS Daily Summary

Daily Weather History Graph

Daily Weather History Graph

Search for Another Location

Airport or City:

Astronomy

Jun. 11, 2019 Rise Set
Actual Time 5:33 AM CDT 7:49 PM CDT
Civil Twilight 5:05 AM CDT 8:17 PM CDT
Nautical Twilight 4:30 AM CDT 8:52 PM CDT
Astronomical Twilight 3:52 AM CDT 9:30 PM CDT
Moon 2:09 PM CDT (6/11) 1:53 AM CDT (6/11)
Length of Visible Light 15h 12m
Length of Day
14h 15m
Waxing Gibbous, 66% of the Moon is Illuminated
Jun 11
Waxing Gibbous
Jun 17
Full
Jun 25
Last Quarter
Jul 2
New
Jul 9
First Quarter

Hourly Weather History & Observations

Time (CDT) Temp. Heat Index Dew Point Humidity Pressure Visibility Wind Dir Wind Speed Gust Speed Precip Events Conditions
12:56 AM 72.0 °F - - N/A% 30.05 in 10.0 mi North 8.1 mph - N/A   Clear
1:56 AM 70.0 °F - - N/A% 30.04 in 10.0 mi North 12.7 mph - N/A   Clear
2:56 AM 69.1 °F - 69.1 °F 100% 30.05 in 10.0 mi North 11.5 mph - N/A   Clear
3:56 AM 68.0 °F - 68.0 °F 100% 30.06 in 10.0 mi North 9.2 mph - N/A   Clear
4:56 AM 66.9 °F - 66.9 °F 100% 30.06 in 10.0 mi NNE 9.2 mph - N/A   Clear
5:56 AM 66.0 °F - 66.0 °F 100% 30.08 in 10.0 mi NNE 8.1 mph - N/A   Clear
6:56 AM 66.9 °F - 64.9 °F 93% 30.09 in 10.0 mi NNE 10.4 mph - N/A   Clear
7:56 AM 70.0 °F - 64.0 °F 81% 30.10 in 10.0 mi North 11.5 mph - N/A   Clear
8:56 AM 73.0 °F - 64.9 °F 76% 30.10 in 10.0 mi NNE 9.2 mph - N/A   Clear
9:56 AM 75.9 °F - 66.9 °F 74% 30.10 in 10.0 mi NNE 6.9 mph - N/A   Clear
10:56 AM 79.0 °F - 68.0 °F 69% 30.09 in 10.0 mi ENE 5.8 mph - N/A   Clear
12:56 PM 82.9 °F 86.5 °F 69.1 °F 63% 30.05 in 10.0 mi ESE 5.8 mph - N/A   Partly Cloudy
1:56 PM 84.9 °F 88.8 °F 69.1 °F 59% 30.03 in 10.0 mi Variable 3.5 mph - N/A   Partly Cloudy
2:56 PM 87.1 °F 90.6 °F 68.0 °F 53% 30.01 in 10.0 mi Calm Calm - N/A   Partly Cloudy
3:56 PM 84.9 °F 88.8 °F 69.1 °F 59% 29.99 in 10.0 mi East 6.9 mph - N/A   Scattered Clouds
4:56 PM 86.0 °F 89.4 °F 68.0 °F 55% 29.98 in 10.0 mi North 4.6 mph - N/A   Scattered Clouds
5:56 PM 84.0 °F 87.8 °F 69.1 °F 61% 29.99 in 10.0 mi North 5.8 mph - N/A   Mostly Cloudy
7:56 PM 79.0 °F - 72.0 °F 79% 30.00 in 10.0 mi North 4.6 mph - N/A   Clear
8:56 PM 77.0 °F - 72.0 °F 84% 30.01 in 10.0 mi NNW 6.9 mph - N/A   Partly Cloudy
9:56 PM 75.9 °F - 72.0 °F 87% 30.03 in 10.0 mi North 5.8 mph - N/A   Scattered Clouds
10:43 PM 75.2 °F - 71.6 °F 89% 30.00 in 10.0 mi ESE 6.9 mph - N/A   Overcast
10:56 PM 75.0 °F - 72.0 °F 90% 30.03 in 10.0 mi SE 6.9 mph - N/A   Overcast
11:36 PM 71.6 °F - 71.6 °F 100% 29.99 in 10.0 mi North 4.6 mph - 0.02 in Rain Light Rain
11:52 PM 71.6 °F - - N/A% 29.98 in 10.0 mi ENE 4.6 mph - 0.03 in   Overcast
11:56 PM 73.0 °F - - N/A% 30.01 in 10.0 mi ENE 5.8 mph - 0.03 in   Overcast